Simultaneous Nadir Overpasses (SNOs) Predictions

Prediction of SNOs between GOES-16 and METOP-C Satellite Orbit:

Table of predicted SNOs for the next 14.0 days since TLE Epoch: 2/15/2020
Index Date Time (GOES-16) GOES-16 Lat,Lon METOP-C Lat,Lon Distance(km) Time Diff (sec)
1 02/16/2020 02:34:31 0.01, -75.20 -0.19, -76.12 105.25 80
2 02/17/2020 02:16:30 0.00, -75.20 0.93, -71.12 465.45 80
3 02/18/2020 14:32:38 -0.01, -75.23 0.10, -75.66 49.93 80
4 02/21/2020 02:30:53 0.01, -75.22 -0.02, -75.23 3.29 80
5 02/23/2020 14:31:41 -0.01, -75.27 -0.12, -74.78 56.09 80
6 02/25/2020 02:47:57 0.02, -75.28 -0.90, -79.35 465.16 80
7 02/26/2020 02:29:56 0.01, -75.29 0.22, -74.35 107.16 80
8 02/27/2020 14:46:05 -0.02, -75.34 0.78, -78.90 405.97 80
9 02/28/2020 14:28:04 -0.02, -75.36 -0.35, -73.90 166.61 80




NCC Satellite Simultaneous Nadir Overpasses (SNOs) Prediction Service
